User: anonymous   Login
Location: Unspecified
(0.0000°N, 0.0000°E)
Time: 06:43:27
(UTC+00:00)
Language:

Cubesat XI-IV - Orbit

View from above orbital plane
View from above orbital plane
View from above satellite
View from above satellite

Ground track
Ground track

The orbit data is extracted from the following two-line orbital elements,

1 27848U 03031J   17087.55952006 +.00000058 +00000-0 +46251-4 0  9996
2 27848 098.7014 097.9566 0008816 224.8351 135.2115 14.21640235712714
Epoch (UTC): 28 March 2017 13:25:42
Eccentricity: 0.0008816
inclination: 98.7014°
perigee height: 813 km
apogee height: 826 km
right ascension of ascending node: 97.9566°
argument of perigee: 224.8351°
revolutions per day: 14.21640235
mean anomaly at epoch: 135.2115°
orbit number at epoch: 71271

The dashed part of the orbit path shows where the satellite is in the earth's shadow,  

DLR